Theta_e
306 306 306 306 306 305 306 306 307 306 306 306 306 306 306 306 306 307 307 307 307 307 307 307 308 308 307 308 307 308 307 305 305 305 308 309 302 305 309 311 312 314 314 312 310 311 316 312 308 311 312 314 317 317 318 318 318 316 315 313 312 312 311 314 315 316 316 318 320 320 322 318 327 345 351 350 353 353 354 354 353 352 352 351 352 350 349 347
306 306 306 305 305 305 305 305 305 306 305 305 306 306 306 305 305 307 307 307 307 307 307 307 307 308 307 308 307 307 306 304 306 307 310 305 303 305 305 308 311 314 314 312 310 311 316 313 308 310 312 315 316 316 317 317 318 317 317 314 312 313 313 314 316 316 317 317 318 319 321 319 324 338 347 354 356 355 357 356 353 354 353 351 351 349 348 347
306 306 305 305 305 305 305 305 305 305 305 305 305 305 305 305 305 306 307 307 307 307 306 307 307 307 307 307 307 307 305 305 310 312 309 304 305 305 305 307 309 313 313 311 309 310 315 314 308 310 312 315 316 315 316 317 318 317 316 315 313 314 313 314 316 316 317 315 317 319 319 321 320 329 346 355 356 357 358 357 356 356 354 351 350 348 348 347
306 306 305 305 305 305 305 304 305 305 305 305 305 305 305 305 305 305 306 307 307 307 306 307 307 307 307 307 306 305 305 308 313 311 307 308 308 305 306 307 309 312 313 312 309 309 312 311 309 310 311 314 316 315 315 316 317 316 316 315 314 314 314 314 315 316 317 315 316 319 319 322 317 326 347 355 357 359 357 355 355 355 354 352 349 348 348 347
306 305 305 305 305 304 304 304 305 305 305 305 305 305 305 306 306 305 306 306 307 307 306 306 306 306 306 306 306 305 306 309 309 311 309 311 311 308 306 306 310 312 312 313 310 308 309 308 308 311 312 314 316 316 316 316 315 316 316 316 315 314 315 314 316 316 317 316 317 319 319 319 319 331 346 351 357 359 355 354 353 353 353 350 349 348 348 348
305 305 305 305 305 304 304 304 305 305 305 305 305 305 306 306 306 306 305 306 306 306 306 306 306 306 306 306 305 305 309 308 308 311 308 311 312 310 307 305 309 312 312 311 308 307 307 307 309 312 314 314 316 317 317 316 314 316 315 315 315 314 315 314 316 316 316 318 318 319 317 319 329 338 343 347 351 354 353 352 352 351 352 350 350 349 348 349
305 305 305 305 304 304 304 304 304 305 305 305 305 305 305 306 306 306 306 306 306 306 306 306 306 306 306 305 305 306 310 313 310 310 309 310 311 311 308 304 309 312 311 309 306 306 308 309 311 313 314 314 316 316 315 316 314 315 315 315 315 315 314 314 316 315 316 318 317 319 317 322 340 342 342 349 350 351 352 351 351 351 351 350 350 350 349 349
305 305 305 304 304 304 304 304 304 304 304 305 305 305 305 305 306 306 306 305 305 305 305 306 306 305 306 305 306 307 308 313 309 308 309 308 311 313 309 305 308 311 310 308 306 305 307 309 310 313 314 314 316 316 315 316 315 315 314 314 315 315 315 315 316 315 316 318 318 320 317 323 340 342 345 353 351 351 352 350 351 351 351 351 351 351 349 349
305 304 304 304 304 304 304 304 304 304 304 305 305 305 305 305 305 305 306 305 305 305 305 305 305 305 306 305 306 307 308 308 305 307 308 309 312 313 312 310 309 310 309 307 306 305 306 308 310 312 313 314 314 315 316 316 317 316 315 314 315 315 317 316 316 316 318 319 319 320 318 323 337 343 344 349 350 350 351 351 352 351 352 352 350 350 348 349
304 304 304 304 304 304 303 304 304 304 304 304 305 305 304 304 305 305 305 305 305 305 305 305 305 305 305 305 305 307 307 303 305 306 306 309 311 310 312 312 311 311 308 307 307 306 307 308 310 311 312 313 313 315 315 316 318 317 315 315 315 316 316 316 316 316 318 319 320 319 319 322 331 342 344 345 349 350 351 352 351 351 351 350 349 348 348 348
304 304 304 304 304 304 303 303 303 303 303 304 304 304 303 303 304 305 305 305 305 304 305 305 305 305 304 304 304 305 305 303 306 306 307 308 309 308 309 310 310 310 308 308 307 307 307 307 308 309 310 312 313 314 314 315 316 315 315 314 315 316 315 316 315 317 317 317 320 319 319 318 321 339 344 341 346 349 351 351 350 350 350 350 349 348 348 347
304 304 304 304 304 304 303 302 302 302 302 303 303 303 303 304 304 305 305 305 305 304 304 304 304 304 304 304 303 305 303 303 305 305 305 305 305 305 306 308 309 309 308 307 306 307 307 307 308 308 310 311 311 313 314 314 314 314 315 314 315 315 315 316 315 316 318 316 320 318 318 317 318 336 343 338 344 348 348 350 349 350 349 349 349 348 348 346
304 304 304 303 303 303 303 302 302 302 302 302 302 302 304 304 304 304 304 304 304 304 304 303 304 303 304 304 304 303 302 302 302 302 302 302 304 304 305 307 308 308 308 307 306 307 306 307 307 308 309 309 309 312 312 312 312 314 314 313 314 313 314 317 314 315 317 316 320 317 315 318 317 329 340 339 345 347 347 351 350 350 349 348 349 347 346 344
304 304 303 303 303 303 303 302 302 302 302 303 302 303 304 304 304 303 303 304 304 304 304 303 303 303 303 303 303 302 301 301 302 302 302 302 304 304 304 307 308 309 309 307 308 307 306 307 307 308 308 309 309 310 310 310 311 313 312 314 314 312 316 320 316 315 316 315 319 316 314 318 317 326 339 340 343 347 348 351 349 350 350 347 348 346 344 341
304 304 303 303 303 303 302 302 302 302 302 303 302 303 304 304 304 303 302 303 304 303 303 303 303 303 303 303 303 301 302 304 304 303 301 302 303 303 304 307 308 310 310 309 310 308 307 308 307 308 308 309 310 308 310 309 311 311 311 315 314 312 317 321 316 315 316 314 317 316 314 317 316 324 338 338 340 347 347 349 349 349 348 346 347 345 343 341
304 303 303 303 303 303 302 302 302 302 302 303 302 302 303 303 303 302 302 303 303 303 303 303 303 303 304 305 303 302 304 306 307 303 302 304 303 303 304 305 306 308 310 310 311 310 309 309 308 308 308 309 309 308 309 310 312 312 312 315 315 312 315 317 316 316 316 315 315 315 315 317 315 322 335 336 339 345 345 347 348 347 347 347 346 343 342 341
304 304 303 303 303 303 303 302 302 301 301 302 302 302 302 302 302 301 302 302 302 303 303 304 303 303 304 304 303 305 305 306 305 304 306 305 304 305 303 304 306 308 310 310 311 312 311 311 310 310 309 309 309 309 310 310 312 315 313 314 315 314 313 314 316 316 314 314 316 314 316 319 317 321 333 336 339 344 344 346 346 346 347 347 344 342 341 340
304 304 303 303 303 303 303 302 302 301 300 300 301 302 302 301 301 301 302 302 302 303 303 304 303 303 305 305 305 306 305 306 306 305 306 306 307 306 304 305 307 307 310 311 312 313 313 312 311 311 310 309 309 308 309 311 312 314 313 313 313 314 313 312 314 315 314 314 315 315 315 317 317 323 333 336 340 343 343 345 345 347 347 345 342 341 340 339
304 304 304 303 303 303 303 302 302 302 301 300 301 301 302 301 302 303 303 303 303 304 305 305 303 304 303 305 305 305 305 305 306 306 306 306 308 307 305 305 306 307 310 313 314 315 314 313 312 311 310 309 309 308 309 311 313 313 314 314 313 311 312 313 314 314 315 313 314 316 315 315 316 327 339 340 341 343 343 344 345 346 345 342 342 341 339 338
304 304 304 303 303 303 302 302 302 302 301 300 301 302 302 303 306 307 304 303 303 304 305 304 304 303 303 303 303 304 305 304 306 307 307 308 307 305 305 305 307 306 309 314 316 315 314 314 313 311 310 310 309 309 310 311 313 312 312 313 312 311 312 313 314 314 314 313 314 315 316 316 316 328 341 341 341 343 343 345 346 345 343 341 341 339 338 338
303 304 303 304 304 303 302 302 301 301 301 300 301 302 302 303 307 308 305 304 304 304 304 304 304 304 304 303 303 304 304 304 306 306 307 308 307 305 306 306 307 307 307 311 314 313 313 314 313 311 310 310 310 311 313 312 312 312 311 312 311 310 311 313 315 314 313 314 314 315 316 316 319 329 341 342 342 343 343 345 345 344 341 340 339 339 339 338
302 303 303 303 303 303 303 302 301 301 300 300 301 301 301 302 303 304 303 304 304 304 304 304 304 304 304 304 304 305 305 305 306 306 307 308 306 306 307 306 307 307 306 309 314 313 314 314 312 311 311 311 311 312 314 313 313 313 312 311 311 311 311 312 314 313 314 313 314 316 315 316 325 334 341 342 341 342 341 343 344 342 340 339 339 340 340 340
302 302 303 303 303 303 302 302 301 301 300 300 300 301 301 301 302 302 302 303 304 304 304 305 305 305 305 305 305 305 306 306 306 306 307 307 306 306 306 306 306 306 305 308 312 313 313 313 311 311 311 311 311 312 313 313 313 313 313 312 311 312 311 312 315 314 314 313 315 317 316 322 332 339 343 343 340 340 341 341 341 340 339 339 339 339 339 340
301 302 302 303 303 303 302 301 301 300 299 299 300 301 301 301 302 302 302 303 304 304 304 305 305 306 306 306 306 306 307 307 306 307 307 307 307 305 306 306 306 306 305 306 310 312 312 311 311 312 311 310 311 311 312 312 311 312 312 312 311 311 311 313 316 315 313 313 317 318 316 324 336 344 346 343 341 341 341 342 343 341 341 339 339 339 339 340
300 301 302 302 303 303 302 301 300 299 299 300 301 302 302 302 302 302 302 305 306 305 304 304 305 307 306 306 307 307 307 307 306 307 307 308 307 305 306 306 305 306 305 305 308 311 311 311 311 312 311 311 310 310 311 311 311 311 312 312 312 312 311 313 314 314 312 312 315 316 317 323 334 344 346 342 342 343 341 343 345 344 342 341 341 341 340 340
300 300 301 302 303 302 301 301 300 299 299 300 302 302 302 302 303 303 303 306 307 305 304 305 305 306 306 306 307 306 308 308 307 307 307 307 307 306 306 305 305 305 305 305 307 310 311 311 311 311 312 311 310 310 311 311 311 311 312 312 312 311 311 313 313 313 312 311 314 316 321 330 337 342 344 342 343 344 342 344 345 344 344 342 342 341 340 339
300 300 301 302 302 301 301 301 299 299 299 300 301 302 302 303 303 303 305 308 308 305 305 304 304 305 305 307 307 307 310 310 307 307 307 307 307 306 306 305 305 305 305 306 307 309 311 311 311 311 312 311 310 310 310 311 311 311 312 312 312 311 311 313 312 313 314 313 316 317 325 336 341 343 343 342 344 345 343 345 344 343 343 341 339 338 337 337
300 300 300 301 302 301 301 300 300 300 299 298 300 301 303 303 304 304 306 310 311 306 305 303 303 305 305 307 308 307 310 309 307 308 307 308 307 306 306 305 304 305 305 306 308 310 311 312 311 311 311 311 311 311 311 312 311 311 312 312 313 312 312 314 313 314 315 314 317 321 324 332 339 343 342 341 345 346 345 345 344 342 340 338 337 335 334 334
299 299 300 301 301 301 301 300 300 300 299 299 300 301 302 303 305 307 308 310 310 306 306 305 304 305 305 307 308 307 307 307 307 309 307 307 307 306 306 305 304 305 305 306 308 311 312 311 312 311 311 311 312 313 313 312 311 311 311 312 313 314 314 316 314 313 314 315 320 324 324 330 337 341 342 343 345 346 345 343 342 340 337 336 335 333 332 332
299 299 299 301 301 301 300 300 300 300 299 300 301 301 302 305 306 307 308 309 309 309 307 304 305 305 306 307 307 307 307 307 307 307 307 307 307 306 306 305 305 305 305 305 308 311 311 311 313 312 312 312 313 314 313 312 311 311 311 311 311 314 315 316 318 315 313 316 321 323 323 330 338 339 341 344 345 344 344 342 340 338 336 334 332 331 331 330
299 298 299 301 301 300 300 300 300 300 300 300 301 301 304 309 308 307 308 307 308 313 309 305 306 305 306 307 307 307 307 307 306 306 308 307 307 306 305 306 305 305 306 306 307 309 310 311 312 312 313 313 313 313 312 312 312 310 311 312 311 314 315 313 315 315 316 319 319 320 322 325 334 338 338 340 342 341 342 341 340 338 335 333 331 330 329 329
299 299 299 300 301 301 300 300 300 299 300 299 300 302 306 309 308 307 307 307 311 314 312 311 310 307 307 306 307 307 306 307 306 305 307 308 308 307 305 305 305 306 306 306 308 310 310 310 311 311 313 313 312 312 311 311 311 310 310 312 313 315 315 314 315 316 318 321 319 322 323 320 330 337 336 338 341 339 339 337 336 335 334 332 330 329 328 327
299 299 299 300 301 301 300 300 299 299 300 299 300 304 306 307 308 307 306 307 311 313 312 313 312 310 309 306 306 307 305 306 306 305 306 307 308 307 306 306 305 306 308 310 311 311 311 311 310 311 312 312 312 311 310 309 310 309 309 312 314 316 316 317 319 318 319 320 319 322 321 321 334 339 337 340 341 337 336 333 332 331 331 330 328 327 327 327
299 299 299 300 301 301 300 299 299 299 300 300 302 305 306 307 308 307 306 307 308 311 312 312 312 313 311 306 306 306 306 306 305 305 305 306 308 308 307 307 305 305 311 315 313 311 313 313 311 310 311 312 312 311 311 310 310 309 310 313 316 317 319 318 318 320 320 319 320 324 324 329 340 340 336 338 336 333 332 330 330 329 328 328 327 326 326 326
299 300 300 300 300 300 300 299 299 300 300 301 304 305 306 306 307 307 309 310 310 312 312 311 312 315 315 311 307 305 306 306 305 305 305 305 307 308 307 307 306 305 308 314 315 312 311 312 312 311 311 312 312 311 311 310 311 310 311 315 314 317 323 321 323 328 326 324 328 334 336 335 338 336 333 334 332 329 329 328 328 328 326 326 326 325 326 325
299 299 299 299 299 299 299 299 299 299 299 302 305 305 305 305 306 307 308 311 311 311 312 312 314 316 318 317 310 305 305 306 305 305 305 305 306 307 307 306 307 306 306 313 317 315 314 314 314 312 312 312 311 313 311 311 315 313 311 313 312 316 323 322 321 324 325 329 332 336 340 337 336 335 332 332 332 330 329 327 327 327 326 326 325 325 324 323
298 298 298 299 299 299 298 299 300 299 300 303 305 305 303 303 304 304 306 307 309 310 311 313 316 317 317 317 314 307 304 306 305 304 306 307 306 307 307 306 307 307 306 311 316 320 322 321 317 312 312 312 311 313 311 311 317 315 309 311 312 314 322 327 325 319 322 333 334 334 341 340 339 339 334 332 333 332 330 328 327 326 326 325 325 324 323 322
298 298 299 299 299 300 299 299 300 300 301 304 305 304 303 303 303 302 303 304 306 309 312 313 315 316 316 318 317 310 304 305 306 305 307 307 307 308 307 306 308 308 307 308 312 317 320 319 318 313 312 313 311 312 312 311 314 314 311 313 317 316 316 322 325 320 324 335 337 337 340 341 340 338 335 334 334 332 331 329 327 326 325 325 324 323 321 321
298 298 299 300 300 300 299 300 301 300 302 304 305 305 303 302 302 302 303 302 303 308 312 313 314 315 316 317 317 314 309 306 307 306 306 306 308 309 308 307 308 307 308 307 308 312 316 317 319 315 311 312 312 311 312 311 310 312 313 313 319 321 316 315 319 323 330 335 338 340 341 341 339 334 333 334 332 331 331 329 327 326 325 324 323 322 320 320
298 299 300 300 300 300 300 300 301 301 302 304 304 303 302 301 301 301 303 302 303 309 313 313 313 314 315 316 317 316 313 311 310 308 307 306 308 309 307 307 309 307 308 308 307 310 315 317 321 320 314 311 312 312 311 311 311 311 313 313 314 315 314 316 318 322 333 339 338 340 341 339 336 332 331 332 330 329 328 327 327 325 324 323 321 320 320 319
298 299 300 300 300 301 301 301 302 302 303 303 302 302 301 301 301 301 303 302 304 309 313 311 313 314 314 316 317 316 315 316 314 313 311 306 306 309 308 307 309 307 307 308 307 311 316 320 322 323 316 309 312 314 310 311 313 313 316 318 315 313 315 321 319 316 328 339 336 337 340 336 334 334 332 330 329 327 326 326 325 324 323 322 320 319 319 319
299 300 301 300 300 301 302 302 303 303 302 302 301 301 301 302 302 302 303 303 304 309 312 310 311 313 313 314 315 314 315 317 316 317 317 310 308 310 308 308 309 308 309 309 307 311 320 323 321 320 318 313 313 314 312 313 314 314 316 317 317 318 318 323 327 323 326 332 333 337 340 335 333 334 331 329 328 326 325 324 324 323 322 320 319 319 318 318
299 301 301 300 300 302 302 302 302 302 302 302 301 301 302 302 302 303 303 303 306 309 311 311 311 312 312 312 313 314 316 317 317 318 319 317 314 311 308 308 308 308 310 310 310 316 323 324 320 319 318 317 316 315 314 313 313 314 316 314 316 321 321 328 341 340 333 334 338 343 343 336 332 331 329 327 326 325 324 323 322 322 321 319 318 318 318 318
299 300 301 300 301 302 302 302 303 303 302 302 302 303 303 302 303 303 303 304 306 308 310 311 310 311 313 313 314 315 316 318 319 318 319 319 318 315 311 308 307 309 310 312 315 319 322 323 324 321 319 318 317 317 315 313 313 319 322 317 316 321 323 326 333 331 329 331 336 341 341 336 332 330 327 326 325 324 324 323 321 321 319 319 318 318 318 318
300 301 301 301 302 302 303 304 304 304 304 303 303 303 303 304 304 304 304 303 304 307 310 310 311 314 316 315 315 315 315 317 318 318 319 319 319 316 311 309 309 306 309 317 320 319 322 328 330 326 323 322 320 319 323 320 314 315 319 317 314 316 318 321 323 323 327 331 334 337 338 334 331 329 327 325 324 324 323 322 320 319 318 318 317 317 317 317
300 302 302 302 302 302 304 304 303 304 305 305 306 306 305 305 305 305 306 305 304 306 308 309 310 314 316 316 316 316 316 317 317 318 319 319 320 318 314 315 313 307 315 326 321 319 323 327 329 326 324 326 322 317 323 323 315 315 317 316 316 317 320 326 327 326 330 335 337 335 334 333 332 330 328 326 324 323 322 321 319 318 317 317 317 317 317 316
300 302 303 303 303 303 303 304 303 305 306 306 307 308 306 306 307 307 308 308 307 308 311 311 309 310 315 317 318 318 318 318 318 319 318 319 322 321 318 321 316 313 325 327 319 323 323 319 326 327 321 323 322 316 318 318 315 319 319 316 318 321 322 326 326 326 329 336 338 333 330 333 332 329 328 326 324 322 321 320 319 318 317 317 317 316 316 315
301 301 301 302 304 304 304 304 304 304 305 305 306 306 305 306 307 308 310 310 309 311 313 314 312 311 314 318 319 319 320 320 321 322 321 322 325 324 324 325 319 318 326 321 318 328 325 319 326 326 319 323 326 324 326 322 320 325 327 324 323 321 321 325 328 328 330 336 338 332 330 332 330 327 326 324 322 321 320 319 318 317 317 317 316 316 315 313
300 301 300 302 304 305 304 305 305 306 306 306 306 306 305 305 306 307 310 311 312 313 313 314 316 313 311 317 321 320 319 320 321 323 323 324 326 326 327 328 322 320 321 317 318 324 324 325 329 326 326 330 328 328 332 331 329 330 330 330 330 328 329 332 331 329 332 336 334 330 330 330 328 325 324 322 320 319 318 317 317 317 317 317 316 315 313 312
300 300 301 302 303 304 304 306 307 307 307 308 308 308 306 306 307 309 312 313 315 318 315 314 316 315 312 316 320 318 317 319 320 321 322 324 325 322 325 326 321 319 318 315 318 318 320 327 331 332 334 331 328 330 332 334 336 333 329 329 332 334 336 336 333 332 334 333 330 329 330 329 326 323 321 320 318 318 317 317 317 317 317 316 314 313 312 312
300 300 300 301 303 304 306 307 308 308 309 309 310 310 310 310 310 312 314 314 313 316 316 314 316 316 314 316 317 316 315 315 317 320 323 325 323 320 322 323 320 321 320 316 319 319 321 329 331 335 338 333 330 331 330 333 338 338 334 329 328 332 333 332 332 333 332 330 329 330 330 327 323 320 319 319 317 317 317 317 317 316 315 314 313 312 312 311
301 301 302 303 304 306 308 308 308 309 310 311 311 311 312 312 312 312 314 314 312 313 315 314 315 316 316 317 318 318 317 315 318 322 324 325 324 322 322 321 319 321 320 320 326 325 326 334 331 329 337 337 332 332 333 334 334 333 330 324 323 329 330 329 331 331 329 329 329 330 329 325 321 319 319 319 318 317 317 317 316 315 313 312 311 311 310 310
Wind_Speed
12 12 12 12 13 13 13 13 13 14 14 15 15 16 16 16 16 15 14 14 14 15 15 16 16 17 18 19 20 21 24 24 24 19 12 20 23 16 11 9 7 3 6 9 10 7 4 4 5 4 2 1 2 2 3 4 3 2 3 4 5 6 5 3 3 4 4 7 8 8 6 3 7 7 4 8 13 15 14 10 10 12 13 16 20 29 32 32
12 12 12 13 13 13 13 14 14 14 14 15 15 16 16 15 16 15 15 14 15 15 15 15 16 17 17 18 20 21 23 24 20 17 23 28 22 18 18 16 11 7 8 11 12 11 5 3 6 5 3 1 2 2 2 3 3 4 3 4 6 6 3 2 3 6 5 7 11 10 5 1 5 6 3 7 10 15 16 10 12 17 16 18 21 26 27 29
13 12 13 13 13 13 13 14 14 15 15 15 15 15 16 15 15 15 15 14 14 15 15 15 16 17 17 18 20 21 22 19 10 14 25 25 21 23 20 19 17 11 12 14 11 13 9 3 5 5 3 1 3 2 2 3 2 4 4 4 7 5 4 4 4 7 7 9 12 11 5 3 3 3 4 10 12 14 16 12 13 16 16 16 15 19 23 24
13 13 13 13 14 14 14 15 15 15 15 15 16 15 15 16 15 15 15 15 15 15 15 15 16 16 17 18 19 21 17 10 4 9 15 13 18 24 21 20 20 15 15 15 10 11 10 3 1 2 3 2 3 2 3 4 2 3 4 6 6 3 6 5 4 7 8 10 10 9 5 7 6 3 9 14 12 8 11 15 19 20 19 18 15 16 19 20
14 14 14 14 14 14 15 15 15 15 16 15 16 16 16 16 14 15 15 15 15 14 15 15 15 16 17 18 19 18 9 2 2 3 8 8 9 18 24 23 20 17 17 16 10 9 9 4 1 0 2 3 3 1 4 6 3 3 4 7 6 5 7 5 4 6 8 10 9 6 5 4 5 4 9 14 12 7 9 15 21 23 21 21 18 16 16 16
14 14 14 14 14 15 15 15 16 15 16 16 16 16 16 15 14 14 14 14 14 14 14 14 16 16 17 20 18 11 2 1 3 5 10 11 7 8 23 24 20 19 18 16 10 6 6 3 3 2 2 3 4 4 5 6 4 4 6 6 7 8 8 6 5 7 8 6 5 5 4 2 4 6 2 8 11 8 8 11 17 19 20 22 19 16 15 14
13 14 14 14 14 15 15 16 16 16 16 16 16 16 16 15 14 14 14 14 14 14 14 14 16 15 16 20 12 2 1 6 6 5 11 13 11 1 18 25 23 20 19 16 9 5 5 5 5 4 3 4 5 7 7 5 5 6 8 7 7 8 8 8 8 8 9 6 4 4 4 4 7 5 2 6 9 11 13 11 14 16 18 20 17 15 14 13
13 13 14 14 15 15 16 16 16 17 17 17 16 16 15 15 14 14 14 14 14 14 14 14 14 14 15 15 7 0 2 12 13 0 11 15 12 3 13 22 23 20 18 17 12 8 5 5 6 4 3 5 5 6 7 5 4 7 9 10 7 6 7 8 7 7 10 9 3 4 6 4 6 7 6 8 12 14 16 14 14 15 15 15 14 15 13 12
13 13 13 14 15 15 16 17 17 17 17 17 17 16 15 15 14 13 13 14 14 14 14 14 14 13 13 10 3 2 7 22 20 6 10 14 10 3 8 17 21 20 16 17 14 8 4 5 7 6 5 6 6 7 6 5 4 7 9 10 9 8 8 7 6 6 9 7 3 6 6 4 7 8 8 8 14 15 16 16 14 14 15 12 11 12 12 11
13 13 13 14 15 15 16 17 17 18 18 17 16 16 16 16 14 14 14 14 14 14 14 13 13 13 11 6 2 3 12 23 19 13 11 8 7 5 6 12 19 21 16 14 13 9 6 7 6 4 4 5 5 6 4 5 5 6 7 9 10 10 9 5 5 5 5 5 2 3 6 4 6 6 6 5 13 17 16 16 14 13 12 11 10 10 10 11
13 13 13 14 14 15 16 17 17 17 18 17 16 16 17 16 14 14 14 14 15 14 14 13 13 12 10 6 4 7 10 11 10 8 9 9 11 12 10 9 13 23 20 12 13 15 14 14 6 0 2 3 4 6 4 5 4 6 6 7 8 9 8 5 5 4 2 5 4 5 5 1 4 7 10 9 11 16 18 16 14 14 12 11 11 9 9 10
13 13 13 13 14 15 16 17 17 17 18 18 17 17 16 15 15 15 15 15 15 14 13 13 12 11 11 8 9 19 17 12 13 13 15 18 21 21 17 15 13 21 22 12 13 20 22 20 8 1 4 2 3 4 4 5 4 6 6 6 9 7 8 8 6 4 5 5 5 7 2 5 1 9 15 13 11 14 17 16 14 15 13 12 11 9 8 9
13 13 13 13 14 15 16 16 16 17 17 17 17 17 16 15 15 16 17 16 16 16 15 14 12 12 11 6 14 28 27 23 25 26 27 25 24 25 21 18 18 20 24 18 17 21 23 21 9 4 6 3 3 4 5 7 3 5 4 4 6 4 6 9 5 3 6 5 5 8 1 6 3 8 15 14 14 14 14 15 15 14 13 12 11 9 8 8
13 13 13 13 14 15 16 16 16 16 16 16 17 16 16 16 16 18 19 18 17 16 14 13 12 11 8 8 20 29 25 26 30 29 29 25 21 24 25 20 17 20 25 23 19 20 21 19 10 5 5 3 5 6 8 7 3 4 3 2 3 2 5 8 4 7 5 4 6 8 3 6 4 7 14 13 15 15 14 13 13 13 12 11 11 11 10 9
13 13 13 13 14 15 15 15 16 16 16 16 16 17 17 17 18 20 20 18 16 14 13 13 11 8 6 10 20 21 15 16 24 29 30 27 19 18 21 18 14 18 26 25 19 17 19 15 7 4 4 4 5 4 6 4 2 2 2 4 2 3 5 7 4 8 7 4 5 9 3 5 4 9 14 13 14 15 14 12 12 13 13 12 11 11 10 9
14 14 13 13 14 14 15 15 16 16 16 17 17 18 18 19 20 20 20 17 15 13 10 9 7 7 3 7 12 14 10 10 17 24 24 24 21 19 22 18 15 16 20 24 21 16 16 10 4 4 4 4 4 2 3 4 4 1 2 4 2 3 4 5 5 5 9 4 3 6 5 3 3 9 13 13 15 15 14 12 12 13 13 13 11 9 9 9
15 14 14 14 14 14 15 15 16 17 17 17 18 18 19 21 21 18 17 15 14 11 9 8 5 5 7 9 10 10 8 10 16 19 15 17 21 24 21 12 11 12 10 17 19 14 10 6 3 4 4 4 3 4 3 5 5 3 0 3 3 3 4 3 5 5 7 6 4 6 6 4 3 11 15 14 17 16 14 13 13 13 12 12 11 10 9 9
15 15 15 14 14 14 15 15 17 18 18 19 18 19 22 23 19 16 15 12 8 6 7 10 6 2 6 9 8 7 5 5 11 14 14 14 17 22 19 9 7 7 4 8 10 9 6 4 4 3 4 6 5 6 6 5 5 3 2 3 3 3 4 5 4 4 5 7 7 5 6 7 2 10 14 14 18 18 15 14 13 13 13 13 11 11 10 9
17 16 15 14 14 14 14 16 17 18 19 19 18 20 22 17 10 9 8 5 2 2 3 5 6 2 5 8 9 9 11 11 10 11 14 15 13 17 17 12 6 3 3 5 6 7 5 3 5 6 7 9 7 7 6 4 6 7 6 4 4 4 4 5 5 5 7 7 8 6 7 8 5 9 11 12 15 16 14 13 12 12 12 12 11 9 9 10
18 17 16 15 14 13 14 16 17 18 19 18 17 16 13 5 1 2 2 4 7 7 4 6 11 6 10 10 5 8 15 16 10 8 13 16 13 10 10 7 4 3 4 4 5 5 5 5 9 9 8 8 7 7 7 5 5 6 5 4 6 5 4 6 5 7 7 6 8 8 8 8 6 9 11 10 11 13 13 13 12 11 11 11 11 10 10 10
18 18 16 15 14 13 14 16 17 19 18 16 14 9 4 2 2 0 1 5 11 14 11 9 14 12 16 17 9 8 11 12 9 7 12 16 13 9 5 5 4 4 4 4 4 3 4 9 11 8 6 6 7 7 8 7 7 7 6 4 6 5 6 8 7 7 7 6 7 7 6 6 3 10 13 11 11 13 14 15 14 14 12 10 11 12 10 9
18 18 16 15 14 13 14 15 18 19 18 15 11 6 7 9 6 3 3 5 9 15 16 14 14 14 22 27 20 10 5 7 10 11 11 14 12 8 5 6 5 4 4 5 4 4 8 10 7 7 6 6 7 7 8 8 8 7 6 5 5 4 5 7 5 6 6 6 6 6 7 3 1 9 14 13 12 9 9 13 14 15 14 11 12 12 10 10
17 17 16 15 14 13 13 15 18 20 19 15 11 10 11 10 5 7 5 4 8 12 13 14 14 13 19 23 16 11 8 7 8 10 10 12 10 9 6 6 6 4 5 8 8 8 8 6 6 7 7 8 8 8 9 8 8 7 5 5 5 4 3 3 4 6 7 7 6 7 7 2 5 8 8 7 9 7 7 8 9 11 13 13 12 11 11 11
18 17 15 15 14 12 12 16 20 22 19 15 15 16 16 16 14 10 4 2 8 9 12 17 13 10 19 18 9 11 9 7 7 9 10 11 9 8 8 8 7 5 8 10 11 10 6 4 9 9 8 10 9 9 10 8 7 8 8 7 6 7 5 3 4 4 6 9 4 8 6 4 3 7 6 6 7 9 9 11 11 9 11 13 13 11 10 10
18 16 15 15 12 10 12 16 18 15 13 12 16 16 15 21 22 13 2 2 6 5 8 14 10 11 21 16 9 9 5 5 9 9 8 9 9 8 7 6 5 9 12 10 10 9 7 6 11 12 11 11 11 9 11 10 6 8 10 10 10 9 5 4 4 1 4 8 4 7 6 3 3 4 8 7 8 9 8 12 12 11 12 13 12 11 10 10
18 15 15 14 11 9 10 9 10 10 11 11 13 13 16 25 18 10 5 2 5 3 2 6 6 9 13 10 9 6 3 5 9 12 11 10 12 11 6 5 5 10 11 8 6 5 6 8 12 14 12 12 12 10 11 11 7 8 7 10 12 9 5 4 3 2 4 6 5 6 6 2 3 1 6 9 12 11 9 11 11 10 11 10 9 9 9 10
17 15 15 14 10 8 6 4 8 10 8 10 11 16 20 26 11 11 5 3 4 3 2 2 3 5 7 11 13 8 2 4 5 10 13 13 13 13 10 8 6 7 7 6 6 5 8 11 12 15 13 11 11 10 11 12 9 8 5 8 10 9 7 6 4 3 4 3 1 4 7 5 2 3 5 11 15 14 11 12 11 10 10 9 8 8 9 10
18 15 14 14 11 10 9 8 10 9 9 13 18 20 22 24 8 8 3 2 2 2 3 2 3 4 5 12 15 8 6 4 3 7 13 16 14 11 11 10 8 8 8 8 7 4 8 11 12 14 13 10 11 9 10 12 10 7 4 6 7 7 6 6 5 5 3 1 2 4 7 5 2 3 5 10 15 15 13 14 13 12 12 10 9 9 9 9
17 15 14 13 11 11 12 11 12 12 15 18 19 21 24 20 7 3 2 2 2 1 3 3 4 3 4 11 12 9 7 2 2 5 10 15 15 10 8 8 8 8 9 10 8 3 6 10 10 11 12 10 9 7 9 12 9 4 4 5 3 5 5 5 6 5 3 3 5 8 8 5 1 4 6 8 12 14 11 11 11 11 12 10 10 11 10 8
16 14 13 12 11 11 11 13 18 16 15 15 17 23 21 10 1 3 1 2 0 1 1 2 3 3 8 10 8 10 9 4 3 2 5 9 13 10 5 6 6 7 9 10 8 5 5 8 8 8 10 9 6 6 8 11 7 1 3 5 2 2 2 4 5 4 3 3 6 11 10 9 4 6 7 7 10 15 12 10 12 11 12 11 10 11 10 8
15 14 13 13 13 11 6 8 12 9 10 12 18 20 10 2 2 2 4 2 2 2 2 1 1 4 12 11 7 9 9 6 4 2 3 6 9 8 6 6 5 5 7 8 8 9 7 8 9 7 8 9 8 7 9 10 8 5 4 4 2 1 0 2 3 3 4 6 7 11 11 12 8 7 7 6 9 18 16 13 15 14 12 10 9 10 10 9
14 13 12 15 16 13 9 9 8 7 11 15 16 10 1 2 1 3 3 3 2 2 3 2 4 1 10 10 7 10 8 5 4 2 3 5 6 6 7 7 6 6 7 7 7 8 8 8 9 8 7 10 11 8 7 8 9 9 5 5 5 2 2 4 4 3 5 6 6 11 11 7 6 4 5 9 12 14 14 13 16 17 15 12 11 11 9 9
13 12 12 15 16 16 17 16 13 12 13 14 10 3 2 2 3 4 4 3 1 2 4 2 6 7 5 8 6 9 8 5 4 3 3 4 6 5 6 6 7 7 5 5 6 6 7 7 9 10 7 10 13 9 7 8 11 12 9 7 6 5 5 5 5 4 4 5 4 9 10 3 1 2 1 11 13 8 8 11 14 15 15 14 12 11 9 9
10 10 12 14 15 17 18 16 13 11 10 10 5 2 3 3 2 2 2 3 3 4 5 5 8 7 3 7 7 9 8 6 5 3 3 5 6 5 6 8 9 7 3 4 5 6 8 7 9 12 8 9 14 12 10 8 8 11 8 6 5 5 6 5 5 4 5 3 0 3 5 2 1 1 2 9 10 9 10 11 13 14 13 13 12 11 10 9
8 9 11 12 14 17 17 15 13 9 6 5 2 3 3 3 1 0 1 2 4 4 8 9 7 3 1 3 6 11 9 6 6 4 2 5 6 5 6 8 8 7 5 4 3 6 10 8 7 10 8 10 14 12 10 6 4 7 4 6 5 6 6 3 4 5 5 4 3 2 1 1 1 3 7 12 12 11 12 12 14 14 12 12 11 11 10 9
6 6 7 10 15 17 15 13 12 9 5 2 2 2 2 2 1 1 0 1 3 6 10 9 3 1 1 2 4 11 10 5 5 5 3 4 7 7 7 7 8 8 6 5 3 4 8 6 5 9 9 12 14 12 11 9 6 5 5 6 6 6 6 3 3 2 4 6 0 1 2 2 2 3 6 12 13 11 12 12 12 12 12 12 10 9 9 9
2 3 6 11 16 15 10 8 10 8 3 1 3 3 2 2 3 2 2 3 3 4 6 4 2 2 1 2 2 8 10 4 4 6 3 3 6 9 10 8 8 10 8 6 2 2 5 4 6 10 11 12 14 13 12 11 7 5 7 8 4 4 3 3 2 1 3 5 1 2 4 5 5 2 4 11 13 10 10 11 12 11 11 11 9 9 9 9
4 5 7 11 14 13 9 9 11 7 2 2 4 5 3 2 3 4 5 5 4 2 3 2 0 1 1 1 3 3 8 6 4 5 4 3 4 9 11 8 9 12 11 8 3 2 2 2 6 9 11 10 10 12 10 10 10 6 6 6 6 5 3 1 3 3 3 4 1 2 5 5 3 3 7 13 14 12 11 11 12 12 11 10 10 9 10 9
4 4 4 6 9 8 12 13 12 6 1 3 4 4 2 2 4 6 7 7 6 4 3 2 1 2 3 2 4 3 4 5 5 4 4 3 3 8 12 8 7 12 12 9 6 3 1 1 4 7 10 10 7 8 8 8 10 6 4 5 5 5 4 4 4 3 5 4 3 5 6 4 1 5 10 13 14 16 14 11 12 12 11 10 10 9 9 8
2 2 2 7 10 6 16 13 9 3 2 2 1 2 2 4 5 7 8 8 5 3 2 1 2 1 4 3 3 3 1 1 2 3 4 5 4 7 11 9 7 11 13 11 7 3 1 2 3 5 7 10 6 6 10 10 9 5 4 5 6 3 3 3 2 2 5 5 4 5 4 3 1 5 10 12 12 14 13 12 10 10 10 10 10 9 8 8
2 1 1 9 9 12 17 9 4 2 1 1 1 3 4 5 6 8 10 10 7 4 2 2 3 3 3 3 3 3 2 1 1 1 2 5 5 4 8 9 8 9 11 11 7 4 1 2 3 4 3 8 7 8 11 10 7 6 5 5 6 5 4 3 2 1 4 5 5 5 4 2 1 3 8 11 11 11 12 12 11 9 10 10 10 10 9 8
2 1 1 9 4 15 14 3 3 1 1 2 2 4 5 5 7 9 10 11 8 5 3 3 6 5 3 4 5 3 2 1 1 1 1 3 5 5 6 9 10 8 7 8 8 5 3 2 3 4 3 6 8 8 10 10 8 6 4 3 4 4 5 6 4 3 3 3 2 3 3 2 1 1 8 11 10 11 11 13 12 10 9 10 9 10 9 7
2 2 1 6 2 14 8 1 4 2 2 3 4 6 7 6 7 8 9 9 6 3 3 4 6 6 4 6 6 3 2 1 1 2 2 2 5 7 7 9 12 8 6 5 6 5 3 2 2 4 4 4 5 2 5 8 8 5 3 3 4 3 4 6 5 4 4 3 3 4 2 1 0 4 9 11 11 12 11 12 14 10 8 9 10 10 8 6
2 3 1 2 6 12 6 2 4 4 4 4 6 8 7 7 8 9 10 9 5 3 4 5 6 6 5 6 6 2 1 0 1 2 3 2 3 6 7 10 12 8 5 5 5 3 2 2 3 3 2 3 2 1 1 4 5 4 3 4 4 5 5 4 3 4 3 4 5 6 2 2 4 9 12 12 13 13 11 11 13 12 10 9 9 9 6 5
2 2 1 0 6 9 4 1 1 2 4 5 7 8 8 8 9 11 12 11 10 7 5 4 4 6 4 3 3 2 1 3 2 3 2 2 3 4 3 4 8 8 6 8 9 5 3 2 3 4 5 3 4 4 4 5 3 2 5 5 4 6 6 5 4 5 3 3 3 5 4 2 6 12 14 14 15 14 12 12 11 11 11 9 9 8 6 6
2 1 0 2 3 5 2 2 1 1 2 3 4 6 8 7 7 10 11 12 13 12 8 5 4 4 2 2 1 2 3 3 3 3 2 2 3 3 5 6 3 6 7 12 13 7 2 2 3 4 6 6 4 3 3 4 4 3 6 6 3 3 5 6 5 3 5 5 3 2 9 11 9 12 14 14 16 15 13 13 12 11 11 10 8 8 8 8
2 2 0 1 2 2 2 4 3 3 2 2 2 3 5 6 6 6 5 6 7 6 5 4 3 4 3 2 2 1 3 3 3 3 3 3 3 3 7 7 4 5 8 13 11 6 3 4 4 4 8 7 3 1 2 4 4 5 7 7 4 4 5 6 5 6 8 7 2 3 14 16 11 12 13 14 16 15 13 13 13 11 11 10 9 9 10 10
1 1 1 2 1 2 3 4 4 5 5 4 3 3 6 8 7 5 3 4 4 1 1 1 2 2 5 4 3 1 3 3 2 2 2 3 3 5 7 6 4 4 8 10 6 6 4 4 4 4 4 2 4 3 5 7 4 4 5 3 3 5 6 6 6 9 10 7 7 12 17 17 14 14 15 14 15 16 14 13 12 12 12 11 11 11 11 11
2 2 2 3 2 1 2 3 3 5 7 6 5 5 7 9 9 8 4 3 5 4 0 1 3 4 3 5 5 2 2 0 1 2 1 2 3 4 4 4 7 5 5 9 4 5 6 3 5 4 2 7 8 4 7 9 6 7 9 7 5 4 6 6 7 9 6 8 15 19 16 13 12 13 14 13 13 14 13 12 12 13 13 12 12 12 12 11
0 1 1 2 2 2 4 4 3 4 5 6 5 5 6 8 9 7 3 1 2 4 2 1 3 4 1 3 5 3 5 4 2 3 1 2 2 3 2 1 5 9 3 6 5 5 7 2 5 2 4 6 7 6 9 10 9 7 8 11 11 7 4 5 7 7 8 8 15 18 12 6 5 9 13 13 13 14 14 14 13 13 12 13 13 12 12 11
2 4 4 2 2 3 3 2 3 4 3 4 4 3 3 5 6 4 2 4 6 5 3 2 3 4 2 1 2 5 9 10 7 5 3 3 2 0 1 1 3 7 6 2 4 6 7 2 3 3 4 4 5 5 6 9 10 8 9 12 12 7 3 3 2 3 9 15 17 14 9 6 6 11 13 12 14 16 16 15 13 11 11 14 14 13 12 11
4 6 6 2 2 3 2 1 3 4 2 2 3 3 3 4 5 4 3 4 6 6 4 2 3 3 1 1 4 7 9 9 7 4 2 4 3 3 2 4 6 4 3 2 1 4 7 4 2 2 4 2 6 3 2 6 7 4 6 8 7 4 1 4 5 4 8 17 15 10 8 9 13 16 16 15 16 16 15 14 13 12 12 13 13 13 13 11
Wind_Direction
329 329 330 332 331 330 328 326 327 327 327 327 327 328 329 328 325 326 324 320 321 319 318 318 319 323 322 323 325 324 323 320 314 310 279 249 243 235 229 211 199 230 285 262 238 246 258 222 218 190 179 246 201 225 221 198 190 195 189 206 225 232 227 184 198 241 266 301 301 319 341 139 118 103 99 68 83 93 80 62 70 74 89 109 118 126 129 130
324 324 326 327 327 328 326 325 325 324 324 323 325 324 325 326 321 322 322 320 321 320 320 319 319 322 321 325 326 323 325 318 309 293 262 251 251 242 231 225 220 227 251 239 222 218 200 192 207 174 137 169 232 213 213 216 175 182 182 203 225 225 227 185 242 280 296 294 299 311 318 216 123 125 142 99 102 100 92 83 88 93 98 108 117 124 128 130
320 321 322 323 324 324 324 323 322 322 322 321 322 321 321 321 319 318 319 320 319 319 320 318 319 321 323 325 324 325 324 318 305 272 267 261 249 242 229 222 219 216 229 228 224 216 203 217 208 166 138 211 255 230 229 248 213 197 182 217 240 240 269 271 260 281 288 290 297 297 311 5 37 98 129 120 119 113 116 125 117 116 122 124 127 128 130 130
317 318 319 319 320 320 321 320 319 320 319 321 321 320 319 317 318 315 315 319 319 319 317 318 322 320 324 324 321 326 323 313 283 259 282 279 245 235 221 213 212 210 219 224 236 222 217 273 297 158 164 215 255 239 237 240 232 212 188 220 239 243 271 267 262 281 289 295 290 287 353 7 340 73 131 128 116 117 139 149 142 140 140 138 139 135 134 130
314 314 316 317 318 318 318 318 317 318 317 320 319 317 316 315 317 312 311 314 317 321 317 319 322 321 325 322 320 324 325 307 277 295 343 334 259 229 213 207 204 206 211 218 232 223 229 261 25 102 197 224 242 216 241 231 223 255 234 236 234 231 262 266 263 276 284 297 296 302 10 338 318 70 137 139 132 160 167 158 148 143 144 143 143 139 136 133
310 312 313 314 316 316 316 315 315 315 316 317 317 317 316 315 314 311 310 310 314 318 317 321 322 325 325 321 322 319 298 245 307 3 0 358 353 233 207 202 200 203 207 214 220 207 219 205 157 191 203 225 219 206 238 229 199 245 267 255 241 233 247 265 265 268 274 298 312 300 326 334 51 56 147 143 141 155 141 146 142 137 139 139 138 137 139 140
307 309 311 312 313 313 313 313 312 312 313 313 315 316 314 314 311 310 311 310 313 314 316 320 322 326 326 328 330 298 204 274 281 10 360 2 13 315 196 198 199 200 206 210 206 196 193 165 175 191 195 228 218 217 233 233 201 219 253 258 245 234 235 254 261 273 277 265 256 283 346 37 79 68 35 101 115 117 110 123 126 125 131 132 133 137 141 142
303 306 308 311 311 311 311 310 310 309 310 311 312 313 311 310 308 309 310 309 312 312 314 316 323 326 326 336 342 36 273 250 238 64 4 358 4 18 185 196 198 197 204 208 202 197 186 174 198 190 197 228 220 225 220 223 236 219 241 255 246 233 228 240 250 269 273 257 255 354 4 42 105 103 90 100 109 113 116 121 121 123 128 129 132 136 139 137
300 303 305 308 308 309 309 308 308 306 307 308 309 310 309 307 306 307 307 310 311 311 313 314 321 324 324 333 328 307 240 229 230 255 343 355 4 341 200 195 197 198 204 215 210 198 187 187 205 196 204 235 233 242 216 192 239 222 228 244 241 241 235 233 241 241 254 258 33 358 336 76 110 94 79 107 118 119 120 121 125 127 129 130 130 133 132 127
297 300 302 305 307 306 307 307 306 305 304 305 305 307 307 307 306 305 307 308 309 309 311 313 317 322 327 323 261 264 240 234 246 272 295 325 357 327 233 204 199 201 208 223 216 203 209 209 204 190 220 254 242 246 223 186 227 238 230 241 238 244 248 228 229 228 251 268 129 286 289 127 134 102 86 126 127 124 124 125 130 128 126 127 125 130 126 120
292 296 299 302 305 306 307 306 305 303 301 301 304 305 304 303 301 302 304 303 306 307 308 310 312 317 315 296 244 239 238 237 245 255 266 283 309 312 288 262 217 203 208 222 221 215 221 232 237 104 250 259 255 265 262 219 236 262 261 275 265 257 266 245 236 230 213 269 190 181 280 252 127 121 137 155 140 134 132 130 132 125 122 122 122 124 120 118
288 292 296 299 303 306 306 306 305 302 300 300 301 303 301 299 298 300 300 301 303 303 307 306 306 312 298 276 239 238 244 252 256 271 281 284 293 293 291 291 260 221 211 210 227 223 223 236 242 230 251 295 291 271 275 261 250 252 246 270 276 272 267 247 244 223 173 231 198 143 303 306 46 134 150 151 147 141 131 129 128 122 120 120 120 116 113 113
284 288 292 297 302 305 305 306 305 303 302 300 299 300 298 298 298 296 296 297 297 298 303 301 300 302 290 271 252 253 260 268 273 285 282 281 289 283 279 279 273 250 225 214 228 229 225 232 229 224 255 293 283 270 299 301 292 259 232 207 256 280 270 247 226 187 176 204 167 128 168 275 292 150 154 147 146 140 126 129 128 126 125 121 121 115 109 96
278 284 287 293 299 302 305 305 306 306 303 301 300 297 297 297 293 291 292 292 294 297 295 296 296 288 271 268 274 271 273 274 276 280 273 273 282 279 277 269 267 258 234 223 231 233 229 231 226 237 259 235 250 293 311 310 317 286 283 223 221 197 263 267 218 159 179 225 143 123 187 247 268 170 161 151 146 139 130 135 131 128 125 120 120 114 107 94
274 279 282 288 295 299 302 304 306 306 305 304 300 295 294 292 289 290 293 293 293 294 291 293 281 271 284 274 278 288 292 275 268 263 258 259 264 272 272 263 271 259 231 222 230 232 230 228 218 229 261 239 236 283 297 301 314 287 273 286 271 177 256 286 240 159 169 243 144 132 193 245 243 180 168 156 144 137 135 139 133 127 119 116 114 106 105 102
272 274 278 284 290 296 299 301 304 305 306 304 299 296 292 290 291 291 295 294 290 289 287 289 258 226 265 278 288 305 289 246 246 251 250 248 242 244 256 265 288 272 228 219 226 228 227 221 201 209 236 251 225 218 284 305 298 274 180 246 243 164 237 283 277 195 176 199 162 163 191 234 224 182 173 155 144 138 137 141 132 125 118 116 112 104 110 110
270 270 275 280 287 293 298 302 306 307 304 303 301 299 294 294 295 292 294 290 284 283 260 258 258 217 248 276 300 305 265 231 241 247 247 244 236 236 247 262 284 277 235 218 222 222 219 204 188 207 212 225 193 160 226 253 253 294 200 228 235 170 193 231 284 269 187 177 205 204 199 224 202 175 174 155 145 142 140 144 137 129 123 119 116 113 119 115
266 267 270 275 284 289 297 304 308 309 308 306 303 301 300 298 296 290 285 276 274 284 255 249 262 251 247 251 264 283 285 268 253 242 232 233 235 234 231 229 266 298 278 219 213 208 206 194 181 199 214 212 197 176 200 213 192 216 221 214 243 207 195 204 235 256 187 186 210 200 212 232 147 151 170 158 148 147 145 145 139 133 127 122 121 122 123 115
267 266 265 270 277 284 294 302 306 307 311 311 308 309 307 302 294 283 267 246 205 222 236 211 199 212 286 249 230 257 291 308 289 244 218 217 224 224 216 220 251 299 247 207 192 198 185 171 186 201 217 210 207 189 181 190 171 184 198 195 210 208 225 215 226 236 180 186 214 191 212 219 137 127 157 157 149 143 141 139 133 131 126 124 125 123 121 116
272 265 263 266 272 280 288 297 302 303 308 312 316 320 321 317 291 279 218 196 207 225 238 180 184 227 286 276 253 280 305 316 297 226 208 207 196 192 199 209 214 210 225 186 180 190 151 188 214 209 209 203 205 180 163 202 216 205 200 207 219 207 228 229 239 246 181 174 221 202 211 218 162 145 152 150 146 139 138 136 132 132 128 127 125 121 120 120
278 269 264 263 269 275 283 294 296 299 305 307 311 316 307 255 237 21 142 227 227 230 246 224 198 220 257 262 278 308 317 317 299 264 233 212 177 163 184 174 179 207 211 176 171 152 161 213 220 201 184 186 195 170 164 211 234 235 219 214 236 219 226 228 223 234 192 181 226 197 194 233 192 155 151 143 145 148 149 144 139 136 129 126 124 122 123 121
284 276 266 263 267 270 280 291 293 298 301 296 292 273 257 260 267 323 307 269 249 229 235 240 222 231 251 257 264 274 283 281 288 292 249 208 177 174 177 156 174 187 175 186 180 177 210 225 202 172 171 175 187 175 179 211 226 237 226 203 234 231 232 244 233 227 199 195 226 176 170 243 31 141 144 141 149 152 148 143 140 137 133 131 131 128 126 123
284 277 268 264 265 269 280 288 290 293 291 282 261 239 254 268 292 335 306 269 279 245 225 233 229 232 250 257 255 236 235 243 260 279 242 203 183 176 176 174 177 171 186 203 196 190 215 219 167 165 178 178 193 192 186 209 227 231 218 196 226 233 206 248 260 233 207 209 208 154 147 61 66 121 114 108 129 114 96 107 108 120 129 130 131 127 128 129
284 278 271 263 262 270 280 286 288 290 290 276 253 252 271 282 281 298 319 267 277 259 219 219 214 216 239 244 218 193 213 220 222 261 243 202 178 168 185 187 168 187 213 212 208 208 218 183 161 174 189 185 195 200 192 203 228 231 222 201 215 232 204 198 252 241 215 221 191 112 99 39 82 134 103 68 97 97 94 96 92 104 118 121 123 122 126 129
286 278 272 263 258 265 276 287 288 297 309 274 260 278 299 303 287 262 267 317 270 267 214 207 195 221 233 223 186 188 222 226 211 237 240 200 179 168 186 183 171 211 214 211 213 216 228 192 168 181 197 195 198 204 199 195 212 239 232 207 211 227 208 207 263 267 203 228 204 123 107 19 325 138 129 116 100 97 101 104 107 116 119 119 121 121 122 120
288 277 272 261 247 260 277 289 285 308 322 273 270 304 318 327 313 221 175 344 265 279 202 177 168 215 219 181 164 184 276 267 219 221 232 221 192 173 180 182 189 217 208 206 228 215 214 197 178 187 196 198 204 211 205 189 195 237 219 189 211 223 202 222 260 148 189 227 211 157 132 103 307 279 143 131 117 117 114 108 113 118 118 117 112 114 119 114
289 275 269 257 237 246 254 269 288 305 304 270 304 326 324 336 333 183 162 354 256 242 190 163 161 185 171 155 157 157 215 250 207 206 218 218 195 173 186 190 184 210 189 183 231 208 186 191 189 192 193 200 208 212 203 183 193 231 186 163 202 210 201 220 221 197 221 264 250 146 126 122 182 225 173 135 122 124 125 120 121 117 111 107 102 104 112 115
287 274 267 253 231 234 246 272 292 287 274 287 319 330 331 337 324 177 137 343 237 186 152 181 209 182 147 152 154 171 238 231 171 191 200 210 203 174 189 198 178 189 184 189 217 184 172 196 197 191 194 205 210 204 189 181 201 230 187 170 184 175 192 207 204 227 222 209 269 177 133 116 159 193 172 145 132 134 139 133 126 119 115 108 107 107 104 110
285 277 265 246 229 236 249 264 265 267 291 310 325 327 326 325 300 154 94 256 246 216 126 126 189 182 135 147 157 199 242 254 195 186 179 202 210 190 188 190 164 178 201 213 215 161 172 203 200 191 200 210 204 192 186 192 207 228 203 208 170 147 182 197 202 219 183 161 218 204 164 125 186 207 174 164 153 147 143 135 127 121 121 116 114 114 108 107
281 274 258 235 227 233 241 255 258 275 306 316 324 322 317 310 238 112 194 234 323 287 78 110 193 146 138 147 161 203 226 246 251 192 155 182 194 188 172 161 158 177 206 221 221 215 203 200 203 206 207 203 187 194 209 208 209 226 227 227 207 128 168 209 215 175 158 223 221 209 185 137 152 222 196 187 164 151 143 134 135 128 124 123 117 118 114 109
275 269 251 226 222 223 224 251 258 291 317 307 319 322 312 332 75 139 203 252 349 324 18 58 271 136 151 156 163 199 221 243 244 190 161 163 170 176 162 168 179 173 197 218 217 227 229 201 205 219 205 184 180 206 220 216 213 222 223 199 194 320 35 239 257 143 164 237 225 205 188 145 153 214 204 192 166 155 152 146 146 139 130 128 120 119 118 112
272 264 246 226 222 221 226 241 258 306 314 311 321 320 285 84 59 204 245 317 321 316 1 21 340 352 169 165 163 188 207 232 227 197 181 161 164 185 178 178 180 164 193 208 192 212 233 222 213 216 204 183 185 201 212 211 212 217 214 172 164 181 177 204 237 204 193 239 228 190 182 160 166 223 198 179 175 166 158 145 143 140 134 130 126 123 118 114
264 256 238 225 225 229 238 252 275 300 315 321 317 295 167 164 197 209 262 317 5 323 332 323 335 330 198 172 164 186 202 220 200 188 214 176 161 194 207 194 179 165 177 181 166 184 224 250 230 212 207 192 190 189 195 204 201 207 209 180 168 160 164 191 208 214 219 239 225 173 176 194 175 326 235 169 166 152 130 125 128 132 130 128 126 121 116 113
257 244 228 224 228 236 245 260 278 292 314 318 294 182 162 201 204 185 224 311 330 323 333 326 324 325 222 189 173 172 195 230 201 172 214 191 173 195 215 208 188 170 135 144 169 183 200 235 226 208 200 189 197 198 194 195 195 209 204 149 157 162 161 193 192 191 211 213 13 137 172 229 146 43 65 134 128 103 108 116 118 121 122 122 120 117 116 115
242 229 229 234 238 244 251 261 269 274 296 298 249 156 177 203 232 155 193 336 331 324 329 319 308 312 278 227 187 171 182 221 209 194 222 198 194 196 201 213 199 175 149 161 190 189 201 231 224 211 209 190 202 206 184 176 190 207 174 128 180 181 148 178 186 171 162 132 32 23 92 10 79 78 85 107 104 101 113 116 117 118 118 120 119 119 122 121
224 225 242 250 252 255 257 256 252 250 260 255 196 191 213 210 231 260 35 9 346 334 324 317 324 42 340 326 204 185 185 195 182 188 238 206 196 197 199 213 201 184 174 180 210 184 190 236 227 206 217 204 203 199 182 187 187 177 178 180 195 170 135 137 186 169 114 116 79 299 118 109 113 65 89 112 108 108 116 114 117 120 120 121 120 123 125 122
285 287 267 259 263 265 262 241 220 213 230 233 196 205 215 239 256 276 328 338 342 337 321 321 22 25 313 323 239 190 183 190 167 173 217 229 198 195 198 208 198 193 189 174 219 192 164 231 238 204 213 216 203 194 194 197 174 156 198 193 149 127 127 107 145 199 88 117 198 232 164 165 161 155 131 123 115 120 126 122 124 125 125 123 119 123 121 117
328 293 265 267 274 263 246 211 183 176 202 217 215 221 208 207 262 294 311 316 314 299 305 300 212 9 342 309 309 207 175 184 178 170 197 234 218 193 190 203 203 199 196 176 195 272 158 222 253 215 207 214 201 192 199 205 195 189 186 162 132 152 191 146 164 191 134 124 139 168 175 186 174 166 155 141 136 141 139 135 136 135 133 127 120 122 118 114
296 280 257 308 316 249 215 191 169 161 227 202 204 218 230 271 274 283 284 285 289 274 276 262 196 317 309 267 313 317 175 180 184 179 185 198 226 205 190 190 203 202 198 184 189 250 260 167 251 228 200 194 194 192 195 203 208 201 136 147 161 165 174 173 172 157 134 142 146 148 174 222 216 161 162 157 150 148 147 145 142 139 136 129 125 126 121 115
291 302 252 345 354 197 186 174 165 180 227 198 198 230 286 303 277 272 261 251 255 247 255 215 149 310 295 266 298 312 288 156 165 179 197 188 201 219 201 184 190 198 196 194 190 200 227 183 242 261 203 187 193 202 197 196 198 182 141 175 188 165 155 170 176 125 125 144 148 146 183 236 219 166 163 157 148 144 143 139 135 136 132 127 126 126 121 121
309 315 226 352 5 164 165 157 169 201 228 234 304 266 274 290 279 280 274 260 249 226 249 266 203 230 276 279 300 304 305 344 123 161 225 196 179 212 212 191 186 189 190 202 204 178 165 196 225 281 220 189 203 208 197 191 179 162 160 195 192 167 138 134 203 231 110 129 154 156 171 188 238 187 158 151 148 143 139 133 130 132 129 125 125 124 126 130
286 250 242 348 7 159 156 154 188 165 265 228 252 260 265 276 272 278 282 277 264 219 214 252 228 227 236 249 269 276 266 277 152 152 257 220 200 218 222 198 193 183 167 193 207 184 154 137 191 251 245 212 219 207 183 171 153 146 167 188 164 149 133 132 187 225 84 88 118 114 127 141 313 176 146 143 140 136 135 131 127 126 123 123 122 122 128 129
262 260 307 338 212 164 155 168 183 190 248 240 267 263 261 270 271 275 279 279 276 221 214 230 216 213 223 239 251 260 269 271 181 189 243 252 226 231 227 203 200 186 142 170 200 188 167 134 170 236 272 277 266 220 150 150 141 138 178 159 133 163 163 145 169 172 118 128 125 80 74 213 191 127 132 132 128 128 132 129 126 124 120 123 125 124 126 118
267 255 259 328 181 171 174 191 178 199 220 240 264 258 257 262 259 263 269 269 263 225 237 249 220 203 208 226 237 262 354 234 235 252 248 238 247 248 234 213 204 189 159 174 177 174 205 174 147 186 240 287 287 34 84 157 152 156 187 174 161 169 155 142 144 109 109 185 160 124 138 219 151 131 128 128 127 127 131 129 127 127 127 130 129 124 119 108
299 249 233 134 170 176 197 346 126 182 214 238 258 259 259 260 252 249 253 258 249 223 226 255 215 186 192 203 223 269 249 165 215 281 262 254 281 280 267 225 202 190 187 173 153 149 196 169 129 160 187 188 175 186 202 186 168 162 168 169 180 174 154 150 142 111 129 183 129 122 145 138 130 133 133 135 135 132 134 131 127 129 133 136 133 127 119 107
320 286 264 80 145 179 238 302 272 212 215 230 254 253 244 247 258 251 245 246 238 219 213 233 200 163 170 162 165 272 264 197 214 270 291 293 276 288 341 331 261 210 186 161 149 140 160 193 170 174 192 191 184 218 208 154 147 172 168 158 159 164 139 126 127 148 162 135 59 119 143 134 141 144 140 143 140 136 138 136 132 134 135 134 133 127 116 106
289 309 358 86 125 172 243 268 253 241 242 245 271 272 257 267 285 274 259 256 241 210 196 230 216 157 159 157 138 252 281 263 243 258 274 276 268 298 325 326 288 218 178 158 151 127 123 217 210 196 215 210 192 313 28 99 144 162 163 161 135 105 115 123 144 171 152 117 51 171 143 138 154 154 144 147 144 139 143 141 138 139 136 134 132 121 113 109
266 321 308 293 271 168 206 242 236 238 249 255 263 277 278 283 289 282 284 314 318 338 106 297 293 193 175 158 131 201 296 322 313 290 289 298 329 342 330 323 304 231 179 166 159 120 121 241 227 180 217 304 18 25 66 76 76 76 92 135 138 134 147 153 168 172 157 136 154 171 158 151 158 157 149 150 146 140 141 139 136 136 134 134 131 120 114 112
299 310 277 292 312 243 246 261 255 251 252 248 247 253 262 273 278 270 270 333 327 307 276 228 279 264 207 149 125 155 252 298 307 285 302 357 7 10 350 329 322 307 182 167 167 123 121 273 260 171 104 17 8 23 82 86 74 52 43 36 48 112 151 152 156 155 138 134 149 157 157 151 151 152 146 140 135 130 130 132 134 136 137 134 127 120 117 114
298 328 302 314 310 260 250 257 255 257 255 244 243 249 251 259 269 271 259 132 271 294 322 195 256 297 301 141 132 175 225 216 228 264 240 71 29 7 4 305 329 334 314 164 155 135 139 221 267 161 80 7 357 31 77 96 94 70 40 26 25 34 71 112 132 117 83 102 133 135 130 120 121 129 128 128 130 129 132 138 140 141 138 130 124 122 120 116
232 236 236 285 307 254 231 229 233 245 249 232 235 254 258 262 281 299 274 201 208 241 267 238 286 341 17 128 179 224 237 238 243 252 211 144 134 100 7 294 323 340 325 198 147 144 150 181 308 70 76 329 332 30 79 95 84 63 31 14 7 10 58 102 121 124 122 124 123 120 126 141 138 128 125 130 135 135 139 143 141 138 133 129 128 127 123 120
308 260 235 232 289 270 260 311 273 254 245 229 251 277 275 280 301 307 286 246 222 233 259 279 306 328 346 271 245 236 242 242 232 225 170 135 145 144 138 273 271 272 269 262 97 139 141 116 360 59 91 297 299 324 63 80 77 49 356 347 333 315 116 93 41 32 123 133 137 150 158 151 144 139 138 142 144 144 146 146 141 136 132 130 131 128 124 122